Regional Weather Roundup
Issued by NWS

Home | Current Version | Previous Version | Text Only | Print | Product List | Glossary On
Versions: 1 2 3 4 5 6 7 8 9 10 11 12 13 14 15 16 17 18 19 20 21 22 23 24 25 26 27 28 29 30 31 32 33 34 35 36 37 38 39 40 41 42 43 44 45 46 47 48 49 50
295
ASUS44 KJAN 220510
RWRMS

MISSISSIPPI HOURLY WEATHER ROUNDUP
NATIONAL WEATHER SERVICE JACKSON MS
1200 AM CDT WED OCT 22 2014

NOTE: "FAIR: INDICATES FEW OR NO CLOUDS BELOW 12,000 FEET WITH NO
SIGNIFICANT WEATHER AND/OR OBSTRUCTIONS TO VISIBILITY.

MSZ001>002-007>008-010>013-018>021-025>028-034>036-220600-
NORTHWEST MISSISSIPPI

CITY           SKY/WX    TMP DP  RH WIND       PRES   REMARKS
CLARKSDALE     FAIR      54  52  94 CALM      30.10S
CLEVELAND      FOG       55  52  89 N5        30.08F VSB 1
GREENWOOD      CLEAR     55  51  86 CALM      30.08F
GREENVILLE     CLEAR     55  51  86 N5        30.08F
GRENADA          N/A    N/A N/A N/A MISG        N/A
OLIVE BRANCH   CLEAR     54  52  94 NE5       30.11S
OXFORD         FAIR      48  46  93 CALM      30.11S
TUNICA         CLEAR     52  48  87 CALM      30.11S
$$

MSZ003>006-009-014>017-022>024-029>033-037>039-220600-
NORTHEAST MISSISSIPPI

CITY           SKY/WX    TMP DP  RH WIND       PRES   REMARKS
COLUMBUS AFB   CLEAR     49  49  97 NW2       30.07S
CORINTH        FAIR      57  46  67 NE6       30.10R
GOLDN TRIANGLE CLEAR     52  46  82 NW3       30.07S
STARKVILLE     FAIR      50  50 100 CALM      30.07F
TUPELO         CLEAR     52  48  86 NE9       30.08F
$$

MSZ040-058-220600-
CENTRAL MISSISSIPPI

CITY           SKY/WX    TMP DP  RH WIND       PRES   REMARKS
JACKSON INTL   CLEAR     55  54  96 CALM      30.07S
JACKSON HAWKNS CLEAR     62  56  80 NE5       30.07S
MERIDIAN KEY   PTCLDY    53  51  93 CALM      30.06F
MERIDIAN NAS   CLEAR     55  53  93 CALM      30.07S
RAYMOND        FOG       54  50  87 MISG      30.08R VSB<1/4
VICKSBURG      CLEAR     56  54  93 N3        30.07S
$$

MSZ059>079-220600-
SOUTH MISSISSIPPI

CITY           SKY/WX    TMP DP  RH WIND       PRES   REMARKS
BROOKHAVEN     FAIR      55  55 100 CALM      30.08F
HATTIESBURG    CLEAR     56  55  97 CALM      30.05F
MCCOMB         CLEAR     63  57  81 N6        30.05F
NATCHEZ        CLEAR     57  54  88 CALM      30.07S
PINE BELT      CLEAR     55  52  88 CALM      30.06F
$$

MSZ080>082-220600-
COASTAL MISSISSIPPI

CITY           SKY/WX    TMP DP  RH WIND       PRES   REMARKS
BILOXI         CLEAR     64  56  77 NE2       30.03S
PASCAGOULA     CLEAR     52  51  97 CALM      30.03S
GULFPORT       CLEAR     60  56  86 CALM      30.03R
$$



USA.gov is the U.S. government's official web portal to all federal, state and local government web resources and services.